{"data":{"norad_id":66304,"epoch":"2026-05-24T23:16:09.971040Z","epoch_age_seconds":81250,"freshness":"FRESH","line1":"1 66304U 25248M   26144.96955985  .00014003  00000+0  52958-3 0  9992","line2":"2 66304  45.4195 239.2696 0012860 288.0574  71.8914 15.26893031 29781","mean_motion":15.26893031,"eccentricity":0.001286,"inclination_deg":45.4195,"raan_deg":239.2696,"arg_perigee_deg":288.0574,"mean_anomaly_deg":71.8914,"bstar":0.00052958,"rev_number":2978,"period_min":94.309160547868,"perigee_km":476.28076790603,"apogee_km":493.9330312157,"semimajor_km":6863.2438995609,"source":"CELESTRAK","updated_at":"2026-05-25T13:38:06.131290Z"}}